Weather History for Dubois Muni, Dubois, WY, WY

Change the Weather History Date:

Thursday, March 27, 2014

  Actual Average (KJAC) Record (KJAC)
Temperature  
Mean Temperature 30 °F -  
Max Temperature 37 °F 43 °F 55 °F (1963)
Min Temperature 23 °F 16 °F -5 °F (2009)
Degree Days  
Heating Degree Days 35    
Moisture  
Dew Point 20 °F    
Average Humidity 70    
Maximum Humidity 86    
Minimum Humidity 47    
Precipitation  
Precipitation 0.00 in - - ()
Sea Level Pressure  
Sea Level Pressure 29.62 in    
Wind  
Wind Speed 13 mph (NW)    
Max Wind Speed 26 mph    
Max Gust Speed 40 mph    
Visibility 8 miles    
Events Snow    
Averages and records for this station are not official NWS values.
T = Trace of Precipitation, MM = Missing Value Source: NWS Daily Summary

Daily Weather History Graph

Daily Weather History Graph

Search for Another Location

Airport:

Trip Planner

Search our weather history database for the weather conditions in past years. The results will help you decide how hot, cold, wet, or windy it might be!

Date:

Astronomy

Mar. 27, 2014 Rise Set
Actual Time 7:09 AM MDT 7:39 PM MDT
Civil Twilight 6:40 AM MDT 8:08 PM MDT
Nautical Twilight 6:06 AM MDT 8:42 PM MDT
Astronomical Twilight 5:31 AM MDT 9:17 PM MDT
Moon 5:08 AM MDT 4:25 PM MDT
Length of Visible Light 13h 27m
Length of Day
12h 30m
Waning Crescent, 12% of the Moon is Illuminated
Mar 27
Waning Crescent
Mar 30
New
Apr 7
First Quarter
Apr 15
Full
Apr 22
Last Quarter

Hourly Weather History & Observations

Time (MDT) Temp. Windchill Dew Point Humidity Pressure Visibility Wind Dir Wind Speed Gust Speed Precip Events Conditions
12:15 AM 30.2 °F 20.2 °F 23.0 °F 75% 29.51 in 10.0 mi West 12.7 mph - N/A   Overcast
12:35 AM 30.2 °F 19.8 °F 21.2 °F 69% 29.51 in 10.0 mi West 13.8 mph - N/A   Mostly Cloudy
12:55 AM 30.2 °F 22.6 °F 21.2 °F 69% 29.52 in 10.0 mi WNW 8.1 mph - N/A   Scattered Clouds
1:15 AM 28.4 °F 22.2 °F 19.4 °F 69% 29.51 in 10.0 mi NW 5.8 mph - N/A   Scattered Clouds
1:35 AM 28.4 °F 20.4 °F 19.4 °F 69% 29.52 in 10.0 mi NNW 8.1 mph - N/A   Mostly Cloudy
1:55 AM 28.4 °F 22.2 °F 19.4 °F 69% 29.51 in 10.0 mi NNW 5.8 mph - N/A   Overcast
2:15 AM 30.2 °F 21.9 °F 19.4 °F 64% 29.52 in 10.0 mi WNW 9.2 mph 17.3 mph N/A   Overcast
2:35 AM 28.4 °F 19.1 °F 23.0 °F 80% 29.51 in 10.0 mi NNW 10.4 mph - N/A   Overcast
2:55 AM 30.2 °F 25.4 °F 21.2 °F 69% 29.51 in 10.0 mi North 4.6 mph 18.4 mph N/A   Scattered Clouds
3:15 AM 30.2 °F 17.4 °F 19.4 °F 64% 29.50 in 10.0 mi West 20.7 mph 31.1 mph N/A   Clear
3:35 AM 30.2 °F 16.5 °F 17.6 °F 60% 29.51 in 10.0 mi West 24.2 mph 31.1 mph N/A   Scattered Clouds
3:55 AM 30.2 °F 18.5 °F 17.6 °F 60% 29.51 in 10.0 mi West 17.3 mph 27.6 mph N/A   Mostly Cloudy
4:15 AM 30.2 °F 16.5 °F 19.4 °F 64% 29.53 in 10.0 mi West 24.2 mph 27.6 mph N/A Snow Light Snow
4:35 AM 28.4 °F 14.4 °F 23.0 °F 80% 29.54 in 0.5 mi West 23.0 mph 31.1 mph N/A Snow Snow
4:55 AM 28.4 °F 15.4 °F 23.0 °F 80% 29.56 in 2.0 mi WNW 19.6 mph 33.4 mph N/A Snow Light Snow
5:15 AM 26.6 °F 12.4 °F 23.0 °F 86% 29.57 in 1.2 mi West 21.9 mph 28.8 mph N/A Snow Light Snow
5:35 AM 26.6 °F 14.3 °F 23.0 °F 86% 29.59 in 0.8 mi NW 16.1 mph 21.9 mph N/A Snow Snow
5:55 AM 26.6 °F 15.2 °F 23.0 °F 86% 29.59 in 0.8 mi NW 13.8 mph - N/A Snow Light Snow
6:15 AM 26.6 °F 15.7 °F 21.2 °F 80% 29.59 in 10.0 mi NNW 12.7 mph 17.3 mph N/A   Mostly Cloudy
6:35 AM 24.8 °F 13.4 °F 21.2 °F 86% 29.60 in 10.0 mi NW 12.7 mph - N/A   Scattered Clouds
6:55 AM 24.8 °F 14.0 °F 21.2 °F 86% 29.60 in 10.0 mi NNW 11.5 mph - N/A   Scattered Clouds
7:15 AM 23.0 °F 15.8 °F 19.4 °F 86% 29.61 in 10.0 mi WNW 5.8 mph - N/A   Clear
7:35 AM 23.0 °F 13.9 °F 19.4 °F 86% 29.61 in 10.0 mi NNW 8.1 mph - N/A   Scattered Clouds
7:55 AM 24.8 °F 16.9 °F 17.6 °F 74% 29.61 in 10.0 mi NNW 6.9 mph - N/A   Scattered Clouds
8:15 AM 26.6 °F 19.1 °F 19.4 °F 74% 29.61 in 10.0 mi NNW 6.9 mph - N/A   Clear
8:35 AM 28.4 °F 19.7 °F 19.4 °F 69% 29.61 in 10.0 mi NW 9.2 mph - N/A   Clear
8:55 AM 28.4 °F 19.7 °F 19.4 °F 69% 29.61 in 10.0 mi North 9.2 mph - N/A   Clear
9:15 AM 30.2 °F 20.2 °F 19.4 °F 64% 29.60 in 10.0 mi North 12.7 mph - N/A   Clear
9:35 AM 32.0 °F 23.6 °F 21.2 °F 64% 29.60 in 10.0 mi North 10.4 mph 16.1 mph N/A   Scattered Clouds
9:55 AM 32.0 °F 22.5 °F 21.2 °F 64% 29.60 in 10.0 mi North 12.7 mph 17.3 mph N/A   Clear
10:15 AM 32.0 °F 22.1 °F 21.2 °F 64% 29.60 in 10.0 mi North 13.8 mph - N/A   Clear
10:35 AM 32.0 °F 22.1 °F 19.4 °F 60% 29.59 in 10.0 mi North 13.8 mph - N/A   Clear
10:55 AM 33.8 °F 25.8 °F 19.4 °F 56% 29.60 in 10.0 mi NNW 10.4 mph 19.6 mph N/A   Scattered Clouds
11:15 AM 35.6 °F 26.6 °F 19.4 °F 52% 29.59 in 10.0 mi NNW 13.8 mph 21.9 mph N/A   Scattered Clouds
11:35 AM 33.8 °F 24.3 °F 19.4 °F 56% 29.59 in 10.0 mi WNW 13.8 mph 23.0 mph N/A   Scattered Clouds
11:55 AM 33.8 °F 24.8 °F 21.2 °F 60% 29.60 in 10.0 mi NNW 12.7 mph 21.9 mph N/A   Overcast
12:10 PM 35.6 °F 27.1 °F 21.2 °F 56% 29.59 in 10.0 mi NNW 12.7 mph 19.6 mph N/A   Scattered Clouds
12:35 PM 37.4 °F 28.2 °F 19.4 °F 48% 29.59 in 10.0 mi NNW 16.1 mph 31.1 mph N/A   Scattered Clouds
12:55 PM 35.6 °F 28.6 °F 19.4 °F 52% 29.59 in 10.0 mi NW 9.2 mph 23.0 mph N/A   Scattered Clouds
1:15 PM 32.0 °F 20.8 °F 24.8 °F 75% 29.63 in 1.0 mi WNW 17.3 mph 31.1 mph N/A Snow Light Snow
1:35 PM 28.4 °F 18.5 °F 23.0 °F 80% 29.64 in 0.2 mi WNW 11.5 mph 29.9 mph N/A Snow Light Snow
1:55 PM 30.2 °F 18.9 °F 23.0 °F 75% 29.65 in 1.2 mi WNW 16.1 mph 25.3 mph N/A Snow Light Snow
2:15 PM 28.4 °F 17.5 °F 23.0 °F 80% 29.65 in 0.5 mi WNW 13.8 mph 33.4 mph N/A Snow Snow
2:35 PM 30.2 °F 21.9 °F 26.6 °F 86% 29.63 in 1.5 mi NNW 9.2 mph 23.0 mph N/A Snow Light Snow
2:55 PM 32.0 °F 22.1 °F 21.2 °F 64% 29.62 in 10.0 mi WNW 13.8 mph 21.9 mph N/A   Mostly Cloudy
3:15 PM 32.0 °F 20.1 °F 19.4 °F 60% 29.62 in 10.0 mi WNW 19.6 mph 33.4 mph N/A   Mostly Cloudy
3:35 PM 33.8 °F 21.9 °F 19.4 °F 56% 29.61 in 10.0 mi WNW 21.9 mph 32.2 mph N/A   Scattered Clouds
4:15 PM 33.8 °F 22.2 °F 17.6 °F 52% 29.62 in 10.0 mi NW 20.7 mph 28.8 mph N/A   Clear
4:35 PM 33.8 °F 23.2 °F 17.6 °F 52% 29.62 in 10.0 mi NW 17.3 mph 26.5 mph N/A   Clear
4:55 PM 33.8 °F 23.5 °F 17.6 °F 52% 29.64 in 10.0 mi WNW 16.1 mph 27.6 mph N/A   Clear
5:15 PM 32.0 °F 18.9 °F 14.0 °F 48% 29.63 in 10.0 mi West 24.2 mph 35.7 mph N/A   Clear
5:35 PM 32.0 °F 18.6 °F 15.8 °F 51% 29.64 in 10.0 mi West 25.3 mph 34.5 mph N/A   Clear
6:15 PM 30.2 °F 18.9 °F 12.2 °F 47% 29.64 in 10.0 mi WNW 16.1 mph 28.8 mph N/A   Clear
6:55 PM 26.6 °F 13.8 °F 21.2 °F 80% 29.66 in 0.5 mi WNW 17.3 mph 29.9 mph N/A Snow Light Snow
7:15 PM 26.6 °F 12.0 °F 19.4 °F 74% 29.66 in 7.0 mi West 23.0 mph 28.8 mph N/A   Mostly Cloudy
7:35 PM 28.4 °F 13.5 °F 17.6 °F 64% 29.68 in 10.0 mi West 26.5 mph 40.3 mph N/A   Clear
7:55 PM 26.6 °F 11.1 °F 17.6 °F 69% 29.70 in 10.0 mi WNW 26.5 mph 32.2 mph N/A   Mostly Cloudy
8:15 PM 26.6 °F 13.1 °F 19.4 °F 74% 29.71 in 10.0 mi WNW 19.6 mph 34.5 mph N/A   Overcast
8:35 PM 26.6 °F 16.2 °F 17.6 °F 69% 29.72 in 10.0 mi NW 11.5 mph 21.9 mph N/A   Scattered Clouds
8:55 PM 24.8 °F 15.3 °F 19.4 °F 80% 29.73 in 10.0 mi NNW 9.2 mph - N/A   Scattered Clouds
9:15 PM 24.8 °F 14.6 °F 19.4 °F 80% 29.73 in 10.0 mi NW 10.4 mph - N/A   Scattered Clouds
9:35 PM 24.8 °F 12.4 °F 19.4 °F 80% 29.74 in 10.0 mi North 15.0 mph - N/A   Clear
9:55 PM 26.6 °F 14.7 °F 17.6 °F 69% 29.76 in 10.0 mi NNW 15.0 mph - N/A   Mostly Cloudy
10:15 PM 24.8 °F 13.4 °F 17.6 °F 74% 29.76 in 10.0 mi NNW 12.7 mph - N/A   Overcast
10:35 PM 26.6 °F 15.2 °F 17.6 °F 69% 29.76 in 10.0 mi North 13.8 mph 17.3 mph N/A   Overcast
10:55 PM 24.8 °F 12.9 °F 21.2 °F 86% 29.77 in 3.0 mi North 13.8 mph 18.4 mph N/A Snow Light Snow
11:15 PM 24.8 °F 16.1 °F 21.2 °F 86% 29.77 in 10.0 mi WNW 8.1 mph - N/A   Mostly Cloudy
11:35 PM 24.8 °F 13.4 °F 21.2 °F 86% 29.77 in 10.0 mi NW 12.7 mph 16.1 mph N/A   Overcast
11:55 PM 24.8 °F 13.4 °F 19.4 °F 80% 29.78 in 10.0 mi NW 12.7 mph - N/A   Scattered Clouds